TimeEST,TemperatureF,Dew PointF,Humidity,Sea Level PressureIn,VisibilityMPH,Wind Direction,Wind SpeedMPH,Gust SpeedMPH,PrecipitationIn,Events,Conditions,WindDirDegrees,DateUTC
12:14 AM,51.1,49.5,94,29.74,10.0,South,8.1,-,N/A,Rain,Light Rain,190,2012-11-12 05:14:00
12:33 AM,51.1,49.5,94,29.74,7.0,SSW,10.4,-,N/A,Rain,Rain,210,2012-11-12 05:33:00
12:53 AM,50.9,49.1,94,29.74,10.0,SSW,8.1,-,N/A,Rain,Light Rain,200,2012-11-12 05:53:00
1:13 AM,50.9,49.3,94,29.74,10.0,South,8.1,-,N/A,Rain,Light Rain,190,2012-11-12 06:13:00
1:33 AM,51.1,49.5,94,29.73,10.0,South,9.2,-,N/A,,Overcast,180,2012-11-12 06:33:00
1:53 AM,51.1,49.1,93,29.72,10.0,South,9.2,-,N/A,,Overcast,190,2012-11-12 06:53:00
2:13 AM,51.1,49.1,93,29.73,10.0,SSW,9.2,17.3,N/A,,Overcast,200,2012-11-12 07:13:00
2:33 AM,50.9,48.7,92,29.74,10.0,SSW,9.2,-,N/A,Rain,Rain,210,2012-11-12 07:33:00
2:54 AM,50.9,48.6,92,29.72,10.0,SSW,8.1,16.1,N/A,,Light Drizzle,210,2012-11-12 07:54:00
3:13 AM,50.9,48.6,92,29.72,10.0,SSW,6.9,-,N/A,,Overcast,200,2012-11-12 08:13:00
3:33 AM,50.9,48.4,91,29.70,10.0,SSW,6.9,-,N/A,,Overcast,200,2012-11-12 08:33:00
3:54 AM,50.7,48.0,90,29.72,7.0,West,16.1,28.8,N/A,,Overcast,260,2012-11-12 08:54:00
4:13 AM,45.3,43.5,93,29.74,2.5,West,17.3,28.8,N/A,Rain,Light Rain,260,2012-11-12 09:13:00
4:53 AM,44.6,43.2,95,29.74,4.0,WSW,13.8,21.9,N/A,,Overcast,240,2012-11-12 09:53:00
5:13 AM,44.6,41.7,90,29.76,10.0,WSW,17.3,26.5,N/A,,Overcast,240,2012-11-12 10:13:00
5:33 AM,44.2,40.3,86,29.76,10.0,SW,23.0,27.6,N/A,,Overcast,230,2012-11-12 10:33:00
5:53 AM,43.5,39.6,86,29.75,10.0,SW,13.8,28.8,N/A,,Overcast,230,2012-11-12 10:53:00
6:13 AM,43.2,39.7,88,29.77,10.0,WSW,16.1,24.2,N/A,,Overcast,240,2012-11-12 11:13:00
6:33 AM,43.0,39.4,87,29.78,10.0,WSW,16.1,29.9,N/A,,Overcast,240,2012-11-12 11:33:00
6:53 AM,42.4,39.0,88,29.77,7.0,WSW,12.7,32.2,N/A,Rain,Light Rain,240,2012-11-12 11:53:00
7:13 AM,41.9,38.7,88,29.78,10.0,WSW,17.3,32.2,N/A,,Overcast,240,2012-11-12 12:13:00
7:33 AM,41.9,37.4,84,29.79,10.0,WSW,17.3,25.3,N/A,,Overcast,240,2012-11-12 12:33:00
7:53 AM,40.6,38.3,91,29.80,10.0,WSW,12.7,20.7,N/A,Rain,Light Rain,250,2012-11-12 12:53:00
8:13 AM,40.1,37.4,90,29.79,10.0,West,16.1,27.6,N/A,Rain,Light Rain,260,2012-11-12 13:13:00
8:33 AM,39.6,37.4,92,29.80,4.0,West,15.0,21.9,N/A,Rain,Light Rain,260,2012-11-12 13:33:00
8:53 AM,39.2,36.9,91,29.81,5.0,West,10.4,-,N/A,Rain,Light Rain,260,2012-11-12 13:53:00
9:13 AM,38.7,36.7,93,29.80,3.0,West,10.4,16.1,N/A,Rain,Light Rain,280,2012-11-12 14:13:00
9:33 AM,37.8,36.0,93,29.81,5.0,West,10.4,16.1,N/A,Rain,Light Rain,280,2012-11-12 14:33:00
9:53 AM,38.8,34.3,84,29.80,10.0,WSW,15.0,26.5,N/A,,Overcast,240,2012-11-12 14:53:00
10:13 AM,38.5,33.3,81,29.82,10.0,WSW,15.0,24.2,N/A,,Overcast,240,2012-11-12 15:13:00
10:33 AM,38.1,32.0,79,29.82,10.0,SW,19.6,28.8,N/A,,Overcast,230,2012-11-12 15:33:00
10:53 AM,37.2,31.5,80,29.83,10.0,SW,15.0,24.2,N/A,,Overcast,220,2012-11-12 15:53:00
11:13 AM,36.5,30.0,77,29.84,10.0,SW,16.1,25.3,N/A,,Overcast,220,2012-11-12 16:13:00
11:33 AM,36.0,28.8,75,29.84,10.0,WSW,15.0,25.3,N/A,,Overcast,240,2012-11-12 16:33:00
11:53 AM,36.3,28.6,74,29.84,10.0,WSW,20.7,29.9,N/A,,Overcast,250,2012-11-12 16:53:00
12:13 PM,35.6,27.7,73,29.84,10.0,WSW,18.4,29.9,N/A,,Overcast,240,2012-11-12 17:13:00
12:33 PM,35.6,27.3,72,29.84,10.0,WSW,18.4,29.9,N/A,,Overcast,240,2012-11-12 17:33:00
12:53 PM,35.6,27.7,73,29.83,10.0,WSW,19.6,31.1,N/A,,Overcast,240,2012-11-12 17:53:00
1:13 PM,34.5,25.7,70,29.83,10.0,WSW,13.8,28.8,N/A,,Overcast,250,2012-11-12 18:13:00
1:33 PM,34.7,26.8,73,29.83,10.0,West,21.9,28.8,N/A,,Overcast,260,2012-11-12 18:33:00
1:53 PM,34.5,27.0,74,29.84,10.0,WSW,19.6,29.9,N/A,,Overcast,250,2012-11-12 18:53:00
2:13 PM,35.1,25.0,67,29.84,10.0,WSW,18.4,28.8,N/A,,Overcast,240,2012-11-12 19:13:00
2:33 PM,34.5,24.3,66,29.84,10.0,WSW,20.7,31.1,N/A,,Overcast,240,2012-11-12 19:33:00
2:53 PM,34.0,25.9,72,29.85,10.0,WSW,18.4,31.1,N/A,,Overcast,240,2012-11-12 19:53:00
3:13 PM,34.0,26.2,73,29.85,10.0,WSW,20.7,31.1,N/A,,Overcast,240,2012-11-12 20:13:00
3:33 PM,33.4,25.0,71,29.86,10.0,SW,20.7,33.4,N/A,,Overcast,220,2012-11-12 20:33:00
3:53 PM,32.9,24.1,70,29.87,10.0,SW,21.9,33.4,N/A,,Overcast,230,2012-11-12 20:53:00
4:13 PM,32.7,23.2,68,29.88,10.0,SW,23.0,34.5,0.01,,Overcast,230,2012-11-12 21:13:00
4:33 PM,32.4,23.2,69,29.89,10.0,WSW,18.4,34.5,0.01,,Overcast,240,2012-11-12 21:33:00
4:53 PM,32.0,21.9,66,29.90,10.0,West,26.5,34.5,0.01,,Overcast,260,2012-11-12 21:53:00
5:33 PM,31.6,22.8,70,29.91,7.0,WSW,19.6,28.8,N/A,Snow,Light Snow,250,2012-11-12 22:33:00
5:53 PM,31.1,24.1,75,29.91,7.0,West,20.7,29.9,N/A,Snow,Light Snow,270,2012-11-12 22:53:00
6:13 PM,31.1,25.5,80,29.92,3.0,West,19.6,28.8,N/A,Snow,Light Snow,260,2012-11-12 23:13:00
6:33 PM,29.8,27.3,90,29.93,1.2,West,17.3,31.1,N/A,Snow,Light Snow,270,2012-11-12 23:33:00
6:53 PM,29.3,27.1,92,29.95,1.2,West,23.0,27.6,N/A,Snow,Light Snow,280,2012-11-12 23:53:00
7:13 PM,27.5,25.5,92,29.95,1.2,WNW,17.3,23.0,N/A,Snow,Light Snow,290,2012-11-13 00:13:00
7:33 PM,27.5,25.7,93,29.96,0.8,West,17.3,20.7,N/A,Snow,Snow,270,2012-11-13 00:33:00
7:53 PM,29.1,23.0,78,29.96,10.0,West,25.3,32.2,N/A,,Overcast,270,2012-11-13 00:53:00
8:33 PM,28.4,21.9,77,29.98,10.0,West,18.4,28.8,N/A,,Overcast,270,2012-11-13 01:33:00
8:53 PM,28.0,19.4,70,29.98,7.0,WNW,16.1,24.2,N/A,Snow,Light Snow,290,2012-11-13 01:53:00
9:13 PM,27.5,20.8,76,29.99,3.0,West,18.4,28.8,N/A,Snow,Light Snow,280,2012-11-13 02:13:00
9:33 PM,27.9,18.1,67,29.99,7.0,West,18.4,31.1,N/A,Snow,Light Snow,280,2012-11-13 02:33:00
9:53 PM,28.4,16.5,61,30.00,10.0,West,18.4,29.9,N/A,,Overcast,280,2012-11-13 02:53:00
10:13 PM,29.1,16.3,59,30.00,10.0,West,15.0,29.9,N/A,,Overcast,280,2012-11-13 03:13:00
10:33 PM,29.1,16.2,58,30.01,10.0,West,21.9,28.8,N/A,,Overcast,280,2012-11-13 03:33:00
10:53 PM,29.3,15.4,56,30.02,10.0,West,19.6,28.8,N/A,,Overcast,270,2012-11-13 03:53:00
11:13 PM,29.7,14.7,54,30.03,10.0,West,26.5,33.4,N/A,,Overcast,270,2012-11-13 04:13:00
11:34 PM,29.8,15.6,56,30.05,10.0,West,25.3,32.2,N/A,,Overcast,270,2012-11-13 04:34:00
11:53 PM,30.2,16.2,56,30.05,10.0,West,21.9,32.2,N/A,,Overcast,270,2012-11-13 04:53:00